This is the latest recevied weather packets stored in our database for station/object ZL2IH. If no packets are shown the sender has not sent any weather packets the latest 10 day(s).
| Time | Temp. | Humidity | Pressure | Rain* | Wind** | Luminosity | Snow |
|---|---|---|---|---|---|---|---|
| 1777285217 | 9.44° C | 100% | 1023.3 hPa | 0 mm | - | - | - |
| 1777284617 | 9.44° C | 100% | 1023.3 hPa | 0 mm | - | - | - |
| 1777284017 | 9.44° C | 100% | 1023.2 hPa | 0 mm | - | - | - |
| 1777273818 | 11.11° C | 100% | 1021.4 hPa | 0 mm | - | - | - |
| 1777272618 | 11.67° C | 100% | 1021.3 hPa | 0 mm | - | - | - |
| 1777270218 | 12.78° C | 100% | 1021.1 hPa | 0 mm | - | - | - |
| 1777267819 | 13.89° C | 100% | 1020.7 hPa | 0 mm | - | - | - |
| 1777267258 | 14.44° C | 100% | 1020.7 hPa | 0 mm | - | - | - |
| 1777266658 | 15° C | 100% | 1020.6 hPa | 0 mm | - | - | - |
| 1777261238 | 15.56° C | 100% | 1020.4 hPa | 0 mm | - | - | - |
| 1777260619 | 15.56° C | 100% | 1020.4 hPa | 0 mm | - | - | - |
| 1777260018 | 15.56° C | 100% | 1020.3 hPa | 0 mm | - | - | - |
| 1777257018 | 17.22° C | 100% | 1020.3 hPa | 0 mm | - | - | - |
| 1777251018 | 18.33° C | 100% | 1020.8 hPa | 0 mm | - | - | - |
| 1777246818 | 16.67° C | 100% | 1021.5 hPa | 0 mm | - | - | - |
| 1777244438 | 15.56° C | 100% | 1021.4 hPa | 0 mm | - | - | - |
| 1777243237 | 15° C | 100% | 1021.4 hPa | 0 mm | - | - | - |
| 1777241417 | 14.44° C | 100% | 1021.2 hPa | 0 mm | - | - | - |
| 1777234817 | 11.11° C | 100% | 1020.5 hPa | 0 mm | - | - | - |
| 1777233657 | 10.56° C | 100% | 1020.4 hPa | 0 mm | - | - | - |
| 1777227017 | 10° C | 100% | 1019.1 hPa | 0 mm | - | - | - |
| 1777222817 | 8.33° C | 100% | 1018.6 hPa | 0 mm | - | - | - |
| 1777221617 | 8.33° C | 100% | 1018.5 hPa | 0 mm | - | - | - |
| 1777215617 | 8.89° C | 100% | 1018.7 hPa | 0 mm | - | - | - |
| 1777212617 | 8.33° C | 100% | 1019.2 hPa | 0 mm | - | - | - |
* Rain latest hour (hover to see other rain measurements)
** Current wind speed in m/s (hover to see current wind gust speed)